SCP
0 0 0 0 0 0 0 0 0 0 0 0 0 0 0 0 0 -0 -0 -0 0 0 -0 -0 -0 0 0 0 0 0 0 0 0 0 0 0 0 0 0 0 0 0 0 0 0 0 0
0 0 0 0 0 0 0 0 0 0 0 0 0 0 0 0 0 0 0 0 0 0 -0 -0 0 0 0 0 0 0 0 0 0 0 0 0 0 0 0 0 0 0 0 0 0 0 0
0 0 0 0 0 0 0 0 0 0 0 0 0 0 0 0 0 0 0 0 0 0 -0 0 0 0 0 0 0 0 0 0 0 0 0 0 0 0 0 0 0 0 0 0 0 0 0
0 0 0 0 0 0 0 0 0 0 0 0 0 0 0 0 0 0 0 0 0 0 0 0 0 0 0 0 0 0 0 0 0 0 0 0 0 0 0 0 0 0 0 0 0 0 0
0 0 0 0 0 0 0 0 0 0 0 0 0 0 0 0 0 0 0 0 0 -0 0 0 0 0 0 0 0 0 0 0 0 0 0 0 0 0 0 0 0 0 0 0 0 0 0
0 0 0 0 0 0 0 0 0 0 0 0 0 0 0 0 0 0 0 0 -0 0 0 0 0 0 0 0 0 0 0 0 0 0 0 0 0 0 0 0 0 0 0 0 0 0 0
0 0 0 0 0 0 0 0 0 0 0 0 0 0 0 0 0 0 0 -0 0 0 0 0 0 0 0 0 0 0 0 0 0 0 0 0 0 0 0 0 0 0 0 0 0 0 0
0 0 0 0 0 0 0 0 0 0 0 0 0 0 0 0 0 0 0 -0 0 0 0 0 0 0 0 0 0 0 0 0 0 0 0 0 0 0 0 0 0 0 0 0 0 0 0
-0 0 0 0 0 0 0 0 0 0 0 0 0 0 0 0 0 0 0 0 0 0 0 0 0 0 0 0 0 0 0 0 0 0 0 0 0 0 0 0 0 0 0 0 0 0 0
0 0 0 0 0 0 0 0 0 0 0 0 0 0 0 0 0 0 0 0 0 0 0 0 0 0 0 0 0 0 0 0 0 0 0 0 0 0 0 0 0 0 0 0 0 0 0
0 0 0 0 0 0 0 0 0 0 0 0 0 0 0 0 0 0 0 0 0 0 0 0 0 0 0 0 0 0 0 0 0 0 0 0 0 0 0 0 0 0 0 0 0 0 0
0 0 0 0 0 0 0 0 0 0 0 0 0 0 0 0 0 0 0 0 0 0 0 0 0 0 0 0 0 0 0 0 0 0 0 0 0 0 0 0 0 0 0 0 0 0 0
0 0 0 0 0 0 0 0 0 0 0 0 0 0 0 0 0 0 0 0 0 0 0 0 0 0 0 0 0 0 0 0 0 0 0 0 0 0 0 0 0 0 0 0 0 0 0
0 0 0 0 0 0 0 0 0 0 0 0 0 0 0 0 0 0 0 0 0 0 0 0 0 0 0 0 0 0 0 0 0 0 0 0 0 0 0 0 0 0 0 0 0 0 0
0 0 0 0 0 0 0 0 0 0 0 0 0 0 0 0 0 0 0 0 0 0 0 0 0 0 0 0 0 0 0 0 0 0 0 0 0 0 0 0 0 0 0 0 0 0 0
0 0 0 0 0 0 0 0 0 0 0 0 0 0 0 0 0 0 0 0 0 0 0 0 0 0 0 0 0 0 0 0 0 0 0 0 0 0 0 0 0 0 0 0 0 0 0
0 0 0 0 0 0 0 0 0 0 0 0 0 0 0 0 0 0 0 0 0 0 0 0 0 0 0 0 0 0 0 0 0 0 0 0 0 0 0 0 0 0 0 0 0 0 0
0 0 0 0 0 0 0 0 0 0 0 0 0 0 0 0 0 0 0 0 0 0 0 0 0 0 0 0 0 0 0 0 0 0 0 0 0 0 0 0 0 0 0 0 0 0 0
0 0 0 0 0 0 0 0 0 0 0 0 0 0 0 0 0 0 0 0 0 0 0 0 0 0 0 0 0 0 0 0 0 0 0 0 0 0 0 0 0 0 0 0 0 0 0
0 0 0 0 0 0 0 0 0 0 0 0 0 0 0 0 0 0 0 0 0 0 0 0 0 0 0 0 0 0 0 0 0 0 0 0 0 0 0 0 0 0 0 0 0 0 0
0 0 0 0 0 0 0 0 0 0 0 0 0 0 0 0 0 0 0 0 0 0 0 0 0 0 0 0 0 0 0 0 0 0 0 0 0 0 0 0 0 0 0 0 0 0 0
0 0 0 0 0 0 0 0 0 0 0 0 0 0 0 0 0 0 0 0 0 0 0 0 0 0 0 0 0 0 0 0 0 0 0 0 0 0 0 0 0 0 0 0 0 0 0
0 0 0 0 0 0 0 0 0 0 0 0 0 0 0 0 0 0 0 0 0 0 0 0 0 0 0 0 0 0 0 0 0 0 0 0 0 0 0 0 0 0 0 0 0 0 0
0 0 0 0 0 0 0 0 0 0 0 0 0 0 0 0 0 0 0 0 0 0 0 0 0 0 0 0 0 0 0 0 0 0 0 0 0 0 0 0 0 0 0 0 0 0 0
0 0 0 0 0 0 0 0 0 0 -0 0 0 0 0 0 0 0 0 0 0 0 0 0 0 0 0 0 0 0 0 0 0 0 0 0 0 0 0 0 0 0 0 0 0 0 0
0 0 0 0 0 0 0 0 0 0 0 0 0 0 0 0 0 0 0 0 0 0 0 0 0 0 0 0 0 0 0 0 0 0 0 0 0 0 0 0 0 0 0 0 0 0 0
0 0 0 0 0 0 0 0 0 0 0 0 0 0 0 0 0 0 0 0 0 0 0 0 0 0 0 0 0 0 0 0 0 0 0 0 0 0 0 0 0 0 0 0 0 0 0
0 0 0 0 0 0 0 0 0 0 0 0 0 0 0 0 0 0 0 0 0 0 0 0 0 0 0 0 0 0 0 0 0 0 0 0 0 0 0 0 0 0 0 0 0 0 0
0 0 0 0 0 0 0 0 0 0 0 0 0 0 0 0 0 0 0 0 0 0 0 0 0 0 0 0 0 0 0 0 0 0 0 0 0 0 0 0 0 0 0 0 0 0 0
Wind_Speed_500mb
29 27 25 22 20 19 17 15 15 15 15 17 21 22 23 26 28 31 31 31 30 33 38 37 29 7 2 1 5 6 3 10 12 12 17 20 21 11 4 8 10 1 8 7 2 6 10
36 34 32 30 27 26 25 23 20 20 19 18 19 24 26 27 27 29 31 30 31 33 36 37 23 11 7 6 9 8 5 3 9 12 17 16 10 13 2 5 2 6 11 24 21 8 14
44 40 38 36 34 32 31 30 27 25 25 24 24 24 27 31 31 31 32 31 33 34 36 36 18 11 11 12 13 9 5 2 7 12 14 13 10 9 5 5 6 9 11 13 10 11 10
47 47 44 41 39 37 35 36 32 29 28 30 29 29 30 31 34 35 35 34 34 33 37 27 17 9 9 12 16 12 5 4 8 10 11 8 12 5 2 6 3 4 5 6 6 7 4
49 49 48 46 45 41 39 40 40 34 30 32 34 33 34 34 35 38 38 38 35 31 27 14 15 8 8 13 20 20 13 10 10 6 11 6 6 4 1 6 8 10 7 9 14 19 4
51 52 52 51 47 45 43 42 43 41 35 35 35 36 35 36 36 39 39 40 26 19 9 11 7 6 12 10 14 15 15 11 8 7 5 4 4 6 7 7 7 9 9 11 13 6 9
52 54 56 54 52 50 46 44 44 43 39 36 37 36 35 35 35 36 40 38 14 6 13 25 24 21 24 26 29 25 18 12 10 4 3 5 7 12 16 12 8 5 9 14 11 13 11
55 54 56 58 57 56 50 47 47 43 41 39 37 36 35 32 31 28 26 13 9 14 23 33 44 41 38 33 13 23 17 14 10 7 0 11 8 10 5 6 8 11 12 16 18 9 5
53 58 58 57 59 58 55 51 49 46 41 41 38 35 33 30 28 24 15 12 14 18 11 14 14 13 9 17 13 19 18 13 9 8 10 10 8 12 7 7 9 9 11 12 17 8 11
49 52 58 60 59 59 58 55 53 50 44 42 41 35 34 27 23 18 13 11 14 15 7 12 8 8 12 12 7 17 18 10 5 14 9 11 2 9 11 10 14 12 5 11 9 8 6
45 52 54 52 55 59 60 59 58 54 48 45 42 38 33 25 15 15 14 12 11 5 5 9 8 13 15 12 9 11 16 10 11 12 9 15 12 11 12 13 15 15 1 8 7 9 7
49 50 55 61 54 52 56 59 60 58 53 47 41 42 33 29 28 26 19 13 2 8 14 7 11 10 9 10 8 13 9 8 5 7 3 12 2 9 13 4 1 3 6 8 6 5 3
51 54 56 56 60 55 55 55 57 58 56 50 46 43 32 30 20 22 20 11 6 9 6 10 12 11 8 11 8 12 11 10 12 2 7 4 8 1 6 5 6 6 9 8 10 4 15
59 56 58 60 57 62 57 56 54 52 52 48 46 41 35 32 28 20 22 5 15 15 15 3 7 5 13 14 7 9 8 7 9 5 5 7 13 16 9 12 13 11 13 9 12 8 31
74 67 64 61 60 59 62 54 47 48 45 38 36 37 39 35 33 29 22 12 20 17 14 19 6 8 10 8 6 9 15 13 16 20 17 13 13 4 1 3 8 9 10 3 3 4 6
81 78 73 68 62 61 61 57 52 40 39 38 37 27 42 32 33 33 6 35 16 18 11 8 23 19 18 13 13 14 16 11 11 23 9 9 12 3 3 2 0 8 7 5 2 6 13
81 84 82 79 71 64 61 61 57 47 40 38 33 17 21 43 35 26 19 18 19 33 25 15 17 14 15 16 17 14 15 8 15 11 14 12 10 5 7 15 20 2 7 7 3 9 9
73 75 84 89 83 74 62 61 61 55 47 46 30 9 29 52 24 16 30 15 15 18 57 14 9 18 22 19 15 17 26 23 40 29 21 16 11 12 26 3 4 5 20 24 10 13 13
73 71 61 66 86 91 75 69 67 64 67 61 24 29 23 63 16 25 10 14 30 15 21 19 23 17 13 15 10 23 30 21 48 26 23 18 8 4 13 3 4 12 13 20 2 4 44
73 84 90 70 62 81 91 82 78 77 73 73 27 9 26 55 50 21 27 28 27 37 45 20 15 15 11 17 26 15 10 10 28 25 26 41 13 17 33 26 11 13 17 19 34 26 40
70 67 68 76 63 50 54 89 92 92 85 99 47 22 33 14 38 40 26 16 46 31 26 58 31 40 27 26 29 30 17 2 3 12 14 17 27 18 43 40 9 30 48 25 44 54 38
59 60 54 53 61 63 65 65 75 106 104 115 46 27 27 10 26 49 55 69 53 23 24 43 47 30 49 48 44 32 45 14 20 4 15 7 17 11 30 19 16 40 55 47 50 61 53
62 63 49 55 61 64 59 73 77 110 119 75 78 72 62 40 24 30 57 67 56 44 47 61 44 40 44 55 83 89 43 31 23 28 25 18 12 8 40 7 7 28 54 52 43 49 41
33 39 55 53 59 59 62 66 75 84 94 104 81 56 22 37 35 51 34 53 58 54 63 49 71 39 82 59 32 19 12 3 15 18 33 18 15 8 9 10 13 22 5 14 40 47 36
49 42 35 40 40 42 49 59 54 65 72 108 104 62 52 28 41 54 67 51 54 78 66 63 75 83 56 34 6 1 3 6 14 21 24 30 25 13 11 18 20 52 19 18 18 60 44
45 54 53 45 37 43 48 45 68 72 66 76 115 124 76 29 41 80 52 61 44 36 35 64 71 65 41 12 12 32 25 13 11 5 6 21 18 18 8 11 20 32 8 17 15 33 31
38 43 44 51 55 50 42 42 50 51 69 82 93 81 87 79 76 72 42 42 66 53 23 12 47 19 52 26 25 23 30 17 18 20 15 10 8 38 34 22 20 23 20 27 10 28 12
40 42 45 48 51 57 60 53 41 40 51 67 80 70 96 76 75 77 94 67 32 70 31 17 13 5 6 24 16 15 15 20 12 12 24 23 23 12 12 9 32 36 19 24 9 9 28
43 42 41 42 46 52 59 68 58 60 43 37 62 78 83 78 69 69 125 128 117 105 82 58 24 16 30 14 12 11 10 9 20 21 5 15 21 19 27 22 5 75 19 76 30 30 28
Wind_Direction_500mb
243 246 250 250 252 259 265 274 283 290 296 306 315 322 329 334 337 341 346 348 351 346 341 344 352 346 229 204 165 180 135 50 34 17 4 6 26 13 7 329 332 176 316 320 247 207 133
240 246 250 255 258 261 266 269 276 285 290 293 299 307 314 320 326 329 334 338 341 341 336 334 335 317 237 233 209 204 218 265 1 355 1 7 19 1 323 300 318 314 290 291 289 272 182
245 244 248 252 256 259 266 272 277 285 292 294 296 298 303 310 316 321 324 330 333 334 327 326 319 287 249 263 204 197 193 239 326 344 350 357 353 0 310 314 312 304 326 322 249 205 208
239 247 249 252 256 259 264 270 275 281 289 295 296 297 300 304 310 316 321 324 329 326 316 309 310 269 253 225 207 207 214 274 312 321 325 329 336 11 167 295 349 5 56 349 281 177 203
239 240 246 253 259 260 264 271 275 278 283 287 294 297 300 305 310 314 319 322 328 320 305 300 291 249 249 222 223 227 245 278 295 288 303 296 341 61 77 68 5 5 245 234 310 211 136
252 245 243 246 250 258 263 268 274 279 282 285 290 295 300 305 310 314 320 326 325 304 233 316 238 264 228 227 219 236 247 254 257 273 301 306 53 54 26 72 258 252 284 274 241 265 199
254 253 252 249 251 253 257 262 268 274 278 280 284 289 294 300 307 315 324 348 350 276 219 279 260 248 259 247 265 255 233 228 194 236 23 349 61 243 250 211 198 209 236 230 254 255 223
268 257 252 253 252 253 255 259 263 266 271 275 279 285 288 292 299 309 323 347 343 310 297 271 260 260 257 259 256 218 212 195 174 200 102 5 255 226 186 225 238 232 261 265 285 240 210
282 273 261 252 253 252 254 254 257 261 262 266 271 276 279 285 289 294 287 310 323 329 286 281 245 251 231 217 222 210 200 186 166 165 201 170 256 119 171 232 257 231 213 252 241 337 290
278 282 277 265 257 255 254 253 253 255 256 258 263 266 271 275 284 257 266 292 312 336 48 265 236 214 189 189 255 196 193 193 188 194 192 231 258 186 221 232 174 276 227 256 281 355 260
272 278 285 277 268 265 258 254 253 253 252 253 256 258 261 257 234 244 263 276 304 345 347 253 190 175 185 183 151 200 191 188 193 188 132 252 178 191 218 225 165 237 188 263 264 259 349
271 271 275 283 272 268 266 260 255 255 255 252 252 257 253 251 243 244 245 246 279 54 250 246 162 184 159 197 197 163 184 186 166 153 277 248 226 190 210 139 177 32 333 299 47 99 256
270 271 270 270 273 271 270 264 258 254 254 253 251 255 250 240 236 230 223 177 40 179 279 223 207 179 187 187 203 179 177 179 190 273 269 334 222 67 162 128 17 81 56 312 334 344 237
266 269 272 270 270 267 277 263 260 257 255 251 248 250 249 235 227 214 191 70 204 222 228 63 144 106 184 160 223 166 144 234 231 116 111 212 302 176 180 198 186 177 177 168 262 251 293
266 266 267 270 267 267 266 272 258 253 251 246 239 242 245 232 217 212 201 216 195 193 202 158 84 169 227 216 203 153 200 203 213 171 187 180 265 120 241 174 159 179 187 152 192 126 7
261 262 263 266 269 266 259 259 262 259 241 231 230 240 240 235 214 206 186 228 216 203 147 149 184 178 191 204 173 180 188 204 213 190 167 215 288 209 174 163 285 167 154 69 9 288 274
255 257 257 260 264 264 257 250 246 245 240 222 219 235 221 220 204 194 220 225 223 238 210 171 202 202 201 185 194 195 215 235 203 172 160 145 179 185 120 208 183 158 214 199 200 162 228
255 252 255 254 256 258 254 245 238 235 230 208 206 232 193 190 181 219 227 193 233 213 229 250 199 200 188 182 204 210 213 204 188 157 169 200 169 202 211 237 279 244 208 186 191 223 235
262 256 250 262 258 250 247 239 233 228 224 195 208 225 203 183 215 215 236 234 237 190 203 216 230 194 195 202 248 213 242 210 182 160 172 179 213 315 312 359 331 224 211 218 358 299 248
260 261 262 258 263 255 246 237 233 222 224 209 195 217 192 204 224 225 215 230 224 221 231 206 204 183 163 222 219 256 222 221 196 205 205 158 187 181 240 238 137 218 200 203 213 239 255
260 261 256 257 257 257 264 248 235 223 214 207 196 216 199 203 220 225 224 238 224 224 211 209 240 224 208 235 225 232 225 237 272 210 178 172 236 194 247 260 194 263 260 206 218 238 237
255 247 245 246 248 248 255 270 265 234 218 206 209 208 185 207 201 207 220 233 232 221 186 216 226 206 219 230 217 231 224 178 204 163 173 193 246 154 258 244 223 259 264 254 245 251 249
257 251 244 235 234 237 253 256 271 251 223 210 221 232 219 220 202 192 222 234 235 223 236 229 225 229 231 227 229 236 231 210 208 184 184 168 184 139 256 119 359 273 252 239 247 243 233
255 252 257 261 253 250 243 242 249 243 239 235 219 225 217 233 217 220 217 219 228 225 229 224 222 223 239 235 223 220 213 267 226 203 175 167 190 154 252 103 233 258 126 186 219 247 219
265 256 257 253 250 249 253 239 229 233 240 234 236 221 237 244 232 237 232 224 223 223 228 229 231 229 227 176 92 101 283 303 222 215 213 216 208 221 220 213 306 291 230 178 177 273 202
286 275 262 256 254 250 248 249 253 250 247 249 243 234 245 243 233 238 243 227 225 225 232 235 235 234 194 178 200 226 224 193 208 246 336 215 233 209 154 206 225 259 136 145 137 274 195
297 287 290 287 270 258 255 257 250 257 254 259 264 255 239 253 250 235 228 231 226 224 232 199 210 191 201 216 224 223 225 184 205 190 162 156 191 215 227 242 270 218 160 149 150 261 173
297 296 295 288 287 285 277 270 263 256 261 257 267 259 251 273 249 218 223 219 205 209 215 162 120 194 167 218 223 213 217 204 175 184 175 167 168 193 204 212 260 141 129 188 205 152 171
293 298 295 298 293 284 284 279 284 276 266 280 277 267 259 263 265 272 237 232 219 219 213 193 205 160 195 195 204 210 210 172 179 220 160 192 187 178 192 211 197 179 192 204 177 168 180
Wind_Speed_850mb
29 27 25 22 20 19 17 15 15 15 15 17 21 22 23 26 28 31 31 31 30 33 38 37 29 7 2 1 5 6 3 10 12 12 17 20 21 11 4 8 10 1 8 7 2 6 10
36 34 32 30 27 26 25 23 20 20 19 18 19 24 26 27 27 29 31 30 31 33 36 37 23 11 7 6 9 8 5 3 9 12 17 16 10 13 2 5 2 6 11 24 21 8 14
44 40 38 36 34 32 31 30 27 25 25 24 24 24 27 31 31 31 32 31 33 34 36 36 18 11 11 12 13 9 5 2 7 12 14 13 10 9 5 5 6 9 11 13 10 11 10
47 47 44 41 39 37 35 36 32 29 28 30 29 29 30 31 34 35 35 34 34 33 37 27 17 9 9 12 16 12 5 4 8 10 11 8 12 5 2 6 3 4 5 6 6 7 4
49 49 48 46 45 41 39 40 40 34 30 32 34 33 34 34 35 38 38 38 35 31 27 14 15 8 8 13 20 20 13 10 10 6 11 6 6 4 1 6 8 10 7 9 14 19 4
51 52 52 51 47 45 43 42 43 41 35 35 35 36 35 36 36 39 39 40 26 19 9 11 7 6 12 10 14 15 15 11 8 7 5 4 4 6 7 7 7 9 9 11 13 6 9
52 54 56 54 52 50 46 44 44 43 39 36 37 36 35 35 35 36 40 38 14 6 13 25 24 21 24 26 29 25 18 12 10 4 3 5 7 12 16 12 8 5 9 14 11 13 11
55 54 56 58 57 56 50 47 47 43 41 39 37 36 35 32 31 28 26 13 9 14 23 33 44 41 38 33 13 23 17 14 10 7 0 11 8 10 5 6 8 11 12 16 18 9 5
53 58 58 57 59 58 55 51 49 46 41 41 38 35 33 30 28 24 15 12 14 18 11 14 14 13 9 17 13 19 18 13 9 8 10 10 8 12 7 7 9 9 11 12 17 8 11
49 52 58 60 59 59 58 55 53 50 44 42 41 35 34 27 23 18 13 11 14 15 7 12 8 8 12 12 7 17 18 10 5 14 9 11 2 9 11 10 14 12 5 11 9 8 6
45 52 54 52 55 59 60 59 58 54 48 45 42 38 33 25 15 15 14 12 11 5 5 9 8 13 15 12 9 11 16 10 11 12 9 15 12 11 12 13 15 15 1 8 7 9 7
49 50 55 61 54 52 56 59 60 58 53 47 41 42 33 29 28 26 19 13 2 8 14 7 11 10 9 10 8 13 9 8 5 7 3 12 2 9 13 4 1 3 6 8 6 5 3
51 54 56 56 60 55 55 55 57 58 56 50 46 43 32 30 20 22 20 11 6 9 6 10 12 11 8 11 8 12 11 10 12 2 7 4 8 1 6 5 6 6 9 8 10 4 15
59 56 58 60 57 62 57 56 54 52 52 48 46 41 35 32 28 20 22 5 15 15 15 3 7 5 13 14 7 9 8 7 9 5 5 7 13 16 9 12 13 11 13 9 12 8 31
74 67 64 61 60 59 62 54 47 48 45 38 36 37 39 35 33 29 22 12 20 17 14 19 6 8 10 8 6 9 15 13 16 20 17 13 13 4 1 3 8 9 10 3 3 4 6
81 78 73 68 62 61 61 57 52 40 39 38 37 27 42 32 33 33 6 35 16 18 11 8 23 19 18 13 13 14 16 11 11 23 9 9 12 3 3 2 0 8 7 5 2 6 13
81 84 82 79 71 64 61 61 57 47 40 38 33 17 21 43 35 26 19 18 19 33 25 15 17 14 15 16 17 14 15 8 15 11 14 12 10 5 7 15 20 2 7 7 3 9 9
73 75 84 89 83 74 62 61 61 55 47 46 30 9 29 52 24 16 30 15 15 18 57 14 9 18 22 19 15 17 26 23 40 29 21 16 11 12 26 3 4 5 20 24 10 13 13
73 71 61 66 86 91 75 69 67 64 67 61 24 29 23 63 16 25 10 14 30 15 21 19 23 17 13 15 10 23 30 21 48 26 23 18 8 4 13 3 4 12 13 20 2 4 44
73 84 90 70 62 81 91 82 78 77 73 73 27 9 26 55 50 21 27 28 27 37 45 20 15 15 11 17 26 15 10 10 28 25 26 41 13 17 33 26 11 13 17 19 34 26 40
70 67 68 76 63 50 54 89 92 92 85 99 47 22 33 14 38 40 26 16 46 31 26 58 31 40 27 26 29 30 17 2 3 12 14 17 27 18 43 40 9 30 48 25 44 54 38
59 60 54 53 61 63 65 65 75 106 104 115 46 27 27 10 26 49 55 69 53 23 24 43 47 30 49 48 44 32 45 14 20 4 15 7 17 11 30 19 16 40 55 47 50 61 53
62 63 49 55 61 64 59 73 77 110 119 75 78 72 62 40 24 30 57 67 56 44 47 61 44 40 44 55 83 89 43 31 23 28 25 18 12 8 40 7 7 28 54 52 43 49 41
33 39 55 53 59 59 62 66 75 84 94 104 81 56 22 37 35 51 34 53 58 54 63 49 71 39 82 59 32 19 12 3 15 18 33 18 15 8 9 10 13 22 5 14 40 47 36
49 42 35 40 40 42 49 59 54 65 72 108 104 62 52 28 41 54 67 51 54 78 66 63 75 83 56 34 6 1 3 6 14 21 24 30 25 13 11 18 20 52 19 18 18 60 44
45 54 53 45 37 43 48 45 68 72 66 76 115 124 76 29 41 80 52 61 44 36 35 64 71 65 41 12 12 32 25 13 11 5 6 21 18 18 8 11 20 32 8 17 15 33 31
38 43 44 51 55 50 42 42 50 51 69 82 93 81 87 79 76 72 42 42 66 53 23 12 47 19 52 26 25 23 30 17 18 20 15 10 8 38 34 22 20 23 20 27 10 28 12
40 42 45 48 51 57 60 53 41 40 51 67 80 70 96 76 75 77 94 67 32 70 31 17 13 5 6 24 16 15 15 20 12 12 24 23 23 12 12 9 32 36 19 24 9 9 28
43 42 41 42 46 52 59 68 58 60 43 37 62 78 83 78 69 69 125 128 117 105 82 58 24 16 30 14 12 11 10 9 20 21 5 15 21 19 27 22 5 75 19 76 30 30 28
Wind_Direction_850mb
243 246 250 250 252 259 265 274 283 290 296 306 315 322 329 334 337 341 346 348 351 346 341 344 352 346 229 204 165 180 135 50 34 17 4 6 26 13 7 329 332 176 316 320 247 207 133
240 246 250 255 258 261 266 269 276 285 290 293 299 307 314 320 326 329 334 338 341 341 336 334 335 317 237 233 209 204 218 265 1 355 1 7 19 1 323 300 318 314 290 291 289 272 182
245 244 248 252 256 259 266 272 277 285 292 294 296 298 303 310 316 321 324 330 333 334 327 326 319 287 249 263 204 197 193 239 326 344 350 357 353 0 310 314 312 304 326 322 249 205 208
239 247 249 252 256 259 264 270 275 281 289 295 296 297 300 304 310 316 321 324 329 326 316 309 310 269 253 225 207 207 214 274 312 321 325 329 336 11 167 295 349 5 56 349 281 177 203
239 240 246 253 259 260 264 271 275 278 283 287 294 297 300 305 310 314 319 322 328 320 305 300 291 249 249 222 223 227 245 278 295 288 303 296 341 61 77 68 5 5 245 234 310 211 136
252 245 243 246 250 258 263 268 274 279 282 285 290 295 300 305 310 314 320 326 325 304 233 316 238 264 228 227 219 236 247 254 257 273 301 306 53 54 26 72 258 252 284 274 241 265 199
254 253 252 249 251 253 257 262 268 274 278 280 284 289 294 300 307 315 324 348 350 276 219 279 260 248 259 247 265 255 233 228 194 236 23 349 61 243 250 211 198 209 236 230 254 255 223
268 257 252 253 252 253 255 259 263 266 271 275 279 285 288 292 299 309 323 347 343 310 297 271 260 260 257 259 256 218 212 195 174 200 102 5 255 226 186 225 238 232 261 265 285 240 210
282 273 261 252 253 252 254 254 257 261 262 266 271 276 279 285 289 294 287 310 323 329 286 281 245 251 231 217 222 210 200 186 166 165 201 170 256 119 171 232 257 231 213 252 241 337 290
278 282 277 265 257 255 254 253 253 255 256 258 263 266 271 275 284 257 266 292 312 336 48 265 236 214 189 189 255 196 193 193 188 194 192 231 258 186 221 232 174 276 227 256 281 355 260
272 278 285 277 268 265 258 254 253 253 252 253 256 258 261 257 234 244 263 276 304 345 347 253 190 175 185 183 151 200 191 188 193 188 132 252 178 191 218 225 165 237 188 263 264 259 349
271 271 275 283 272 268 266 260 255 255 255 252 252 257 253 251 243 244 245 246 279 54 250 246 162 184 159 197 197 163 184 186 166 153 277 248 226 190 210 139 177 32 333 299 47 99 256
270 271 270 270 273 271 270 264 258 254 254 253 251 255 250 240 236 230 223 177 40 179 279 223 207 179 187 187 203 179 177 179 190 273 269 334 222 67 162 128 17 81 56 312 334 344 237
266 269 272 270 270 267 277 263 260 257 255 251 248 250 249 235 227 214 191 70 204 222 228 63 144 106 184 160 223 166 144 234 231 116 111 212 302 176 180 198 186 177 177 168 262 251 293
266 266 267 270 267 267 266 272 258 253 251 246 239 242 245 232 217 212 201 216 195 193 202 158 84 169 227 216 203 153 200 203 213 171 187 180 265 120 241 174 159 179 187 152 192 126 7
261 262 263 266 269 266 259 259 262 259 241 231 230 240 240 235 214 206 186 228 216 203 147 149 184 178 191 204 173 180 188 204 213 190 167 215 288 209 174 163 285 167 154 69 9 288 274
255 257 257 260 264 264 257 250 246 245 240 222 219 235 221 220 204 194 220 225 223 238 210 171 202 202 201 185 194 195 215 235 203 172 160 145 179 185 120 208 183 158 214 199 200 162 228
255 252 255 254 256 258 254 245 238 235 230 208 206 232 193 190 181 219 227 193 233 213 229 250 199 200 188 182 204 210 213 204 188 157 169 200 169 202 211 237 279 244 208 186 191 223 235
262 256 250 262 258 250 247 239 233 228 224 195 208 225 203 183 215 215 236 234 237 190 203 216 230 194 195 202 248 213 242 210 182 160 172 179 213 315 312 359 331 224 211 218 358 299 248
260 261 262 258 263 255 246 237 233 222 224 209 195 217 192 204 224 225 215 230 224 221 231 206 204 183 163 222 219 256 222 221 196 205 205 158 187 181 240 238 137 218 200 203 213 239 255
260 261 256 257 257 257 264 248 235 223 214 207 196 216 199 203 220 225 224 238 224 224 211 209 240 224 208 235 225 232 225 237 272 210 178 172 236 194 247 260 194 263 260 206 218 238 237
255 247 245 246 248 248 255 270 265 234 218 206 209 208 185 207 201 207 220 233 232 221 186 216 226 206 219 230 217 231 224 178 204 163 173 193 246 154 258 244 223 259 264 254 245 251 249
257 251 244 235 234 237 253 256 271 251 223 210 221 232 219 220 202 192 222 234 235 223 236 229 225 229 231 227 229 236 231 210 208 184 184 168 184 139 256 119 359 273 252 239 247 243 233
255 252 257 261 253 250 243 242 249 243 239 235 219 225 217 233 217 220 217 219 228 225 229 224 222 223 239 235 223 220 213 267 226 203 175 167 190 154 252 103 233 258 126 186 219 247 219
265 256 257 253 250 249 253 239 229 233 240 234 236 221 237 244 232 237 232 224 223 223 228 229 231 229 227 176 92 101 283 303 222 215 213 216 208 221 220 213 306 291 230 178 177 273 202
286 275 262 256 254 250 248 249 253 250 247 249 243 234 245 243 233 238 243 227 225 225 232 235 235 234 194 178 200 226 224 193 208 246 336 215 233 209 154 206 225 259 136 145 137 274 195
297 287 290 287 270 258 255 257 250 257 254 259 264 255 239 253 250 235 228 231 226 224 232 199 210 191 201 216 224 223 225 184 205 190 162 156 191 215 227 242 270 218 160 149 150 261 173
297 296 295 288 287 285 277 270 263 256 261 257 267 259 251 273 249 218 223 219 205 209 215 162 120 194 167 218 223 213 217 204 175 184 175 167 168 193 204 212 260 141 129 188 205 152 171
293 298 295 298 293 284 284 279 284 276 266 280 277 267 259 263 265 272 237 232 219 219 213 193 205 160 195 195 204 210 210 172 179 220 160 192 187 178 192 211 197 179 192 204 177 168 180